Time,TemperatureF,DewpointF,PressureIn,WindDirection,WindDirectionDegrees,WindSpeedMPH,WindSpeedGustMPH,Humidity,HourlyPrecipIn,Conditions,Clouds,dailyrainin,SolarRadiationWatts/m^2,SoftwareType,DateUTC
2015-09-01 00:09:00,61.3,58.0,29.81,South,171,10.0,16.0,89,0.00,,,0.00,0,weatherlink.com 1.10,2015-09-01 07:09:00,
2015-09-01 00:24:00,61.3,58.0,29.81,South,175,8.0,16.0,88,0.00,,,0.00,0,weatherlink.com 1.10,2015-09-01 07:24:00,
2015-09-01 00:39:00,61.4,58.0,29.81,South,171,10.0,18.0,88,0.00,,,0.00,0,weatherlink.com 1.10,2015-09-01 07:39:00,
2015-09-01 00:54:00,61.5,58.0,29.80,South,191,14.0,14.0,87,0.00,,,0.00,0,weatherlink.com 1.10,2015-09-01 07:54:00,
2015-09-01 01:09:00,61.7,58.0,29.81,SSE,159,6.0,15.0,86,0.00,,,0.00,0,weatherlink.com 1.10,2015-09-01 08:09:00,
2015-09-01 01:24:00,61.6,57.0,29.81,South,173,6.0,15.0,86,0.00,,,0.00,0,weatherlink.com 1.10,2015-09-01 08:24:00,
2015-09-01 01:39:00,61.6,57.0,29.80,SSE,168,10.0,16.0,86,0.00,,,0.00,0,weatherlink.com 1.10,2015-09-01 08:39:00,
2015-09-01 01:54:00,61.2,57.0,29.80,SSE,148,12.0,14.0,87,0.00,,,0.00,0,weatherlink.com 1.10,2015-09-01 08:54:00,
2015-09-01 02:09:00,61.1,58.0,29.80,SSE,161,3.0,12.0,88,0.00,,,0.00,0,weatherlink.com 1.10,2015-09-01 09:09:00,
2015-09-01 02:24:00,61.2,57.0,29.82,South,177,8.0,14.0,87,0.01,,,0.01,0,weatherlink.com 1.10,2015-09-01 09:24:00,
2015-09-01 02:39:00,60.5,57.0,29.82,South,180,7.0,17.0,89,0.01,,,0.01,0,weatherlink.com 1.10,2015-09-01 09:39:00,
2015-09-01 02:54:00,60.4,58.0,29.81,SSE,162,9.0,16.0,90,0.01,,,0.01,0,weatherlink.com 1.10,2015-09-01 09:54:00,
2015-09-01 03:09:00,60.4,58.0,29.81,South,190,10.0,15.0,90,0.01,,,0.01,0,weatherlink.com 1.10,2015-09-01 10:09:00,
2015-09-01 03:24:00,60.4,58.0,29.82,SSW,211,6.0,11.0,91,0.00,,,0.01,0,weatherlink.com 1.10,2015-09-01 10:24:00,
2015-09-01 03:39:00,59.8,57.0,29.82,South,188,6.0,7.0,91,0.01,,,0.02,0,weatherlink.com 1.10,2015-09-01 10:39:00,
2015-09-01 03:54:00,59.2,57.0,29.82,SSW,192,3.0,6.0,93,0.02,,,0.03,0,weatherlink.com 1.10,2015-09-01 10:54:00,
2015-09-01 04:09:00,58.7,57.0,29.83,South,184,6.0,6.0,94,0.03,,,0.04,0,weatherlink.com 1.10,2015-09-01 11:09:00,
2015-09-01 04:24:00,58.6,57.0,29.83,SSW,213,5.0,7.0,95,0.04,,,0.05,0,weatherlink.com 1.10,2015-09-01 11:24:00,
2015-09-01 04:39:00,58.5,57.0,29.84,SW,223,3.0,7.0,95,0.03,,,0.05,0,weatherlink.com 1.10,2015-09-01 11:39:00,
2015-09-01 04:54:00,58.4,57.0,29.84,SW,225,5.0,5.0,96,0.02,,,0.05,0,weatherlink.com 1.10,2015-09-01 11:54:00,
2015-09-01 05:09:00,58.2,57.0,29.84,SW,222,4.0,7.0,96,0.01,,,0.05,0,weatherlink.com 1.10,2015-09-01 12:09:00,
2015-09-01 05:24:00,57.7,57.0,29.83,SW,220,4.0,5.0,96,0.00,,,0.05,0,weatherlink.com 1.10,2015-09-01 12:24:00,
2015-09-01 05:40:00,57.4,56.0,29.83,SW,220,0.0,5.0,96,0.00,,,0.05,0,weatherlink.com 1.10,2015-09-01 12:40:00,
2015-09-01 05:55:00,56.9,56.0,29.83,SW,220,2.0,5.0,96,0.00,,,0.05,0,weatherlink.com 1.10,2015-09-01 12:55:00,
2015-09-01 06:10:00,56.8,56.0,29.83,SW,220,0.0,3.0,96,0.00,,,0.05,0,weatherlink.com 1.10,2015-09-01 13:10:00,
2015-09-01 06:25:00,56.9,56.0,29.83,SW,220,1.0,4.0,96,0.00,,,0.05,0,weatherlink.com 1.10,2015-09-01 13:25:00,
2015-09-01 06:40:00,56.9,56.0,29.82,SW,220,0.0,2.0,96,0.00,,,0.05,7,weatherlink.com 1.10,2015-09-01 13:40:00,
2015-09-01 06:55:00,56.9,56.0,29.83,SW,220,0.0,3.0,96,0.00,,,0.05,26,weatherlink.com 1.10,2015-09-01 13:55:00,
2015-09-01 07:10:00,57.0,56.0,29.82,SSW,211,1.0,5.0,96,0.00,,,0.05,42,weatherlink.com 1.10,2015-09-01 14:10:00,
2015-09-01 07:25:00,57.2,56.0,29.82,SSW,211,0.0,2.0,96,0.00,,,0.05,44,weatherlink.com 1.10,2015-09-01 14:25:00,
2015-09-01 07:40:00,57.4,56.0,29.82,SSW,211,2.0,3.0,96,0.00,,,0.05,62,weatherlink.com 1.10,2015-09-01 14:40:00,
2015-09-01 07:55:00,57.8,57.0,29.82,SSW,211,1.0,2.0,97,0.00,,,0.05,76,weatherlink.com 1.10,2015-09-01 14:55:00,
2015-09-01 08:10:00,57.9,57.0,29.82,SSW,211,0.0,3.0,96,0.00,,,0.05,98,weatherlink.com 1.10,2015-09-01 15:10:00,
2015-09-01 08:25:00,58.4,58.0,29.82,SSW,211,2.0,3.0,97,0.00,,,0.05,160,weatherlink.com 1.10,2015-09-01 15:25:00,
2015-09-01 08:40:00,58.9,58.0,29.82,SSW,208,0.0,4.0,96,0.00,,,0.05,130,weatherlink.com 1.10,2015-09-01 15:40:00,
2015-09-01 08:55:00,59.5,58.0,29.82,SSW,208,1.0,4.0,95,0.00,,,0.05,111,weatherlink.com 1.10,2015-09-01 15:55:00,
2015-09-01 09:10:00,60.0,58.0,29.82,SSW,208,1.0,4.0,94,0.00,,,0.05,107,weatherlink.com 1.10,2015-09-01 16:10:00,
2015-09-01 09:25:00,60.3,58.0,29.82,SSW,208,0.0,2.0,93,0.00,,,0.05,158,weatherlink.com 1.10,2015-09-01 16:25:00,
2015-09-01 09:40:00,60.4,58.0,29.81,SSW,200,0.0,5.0,91,0.00,,,0.05,148,weatherlink.com 1.10,2015-09-01 16:40:00,
2015-09-01 09:55:00,60.4,58.0,29.81,SSE,164,3.0,5.0,90,0.00,,,0.05,163,weatherlink.com 1.10,2015-09-01 16:55:00,
2015-09-01 10:10:00,60.6,58.0,29.81,SSE,162,2.0,5.0,90,0.00,,,0.05,178,weatherlink.com 1.10,2015-09-01 17:10:00,
2015-09-01 10:25:00,61.1,58.0,29.80,SSE,163,4.0,4.0,90,0.00,,,0.05,223,weatherlink.com 1.10,2015-09-01 17:25:00,
2015-09-01 10:40:00,61.3,58.0,29.81,SSE,158,4.0,6.0,88,0.00,,,0.05,148,weatherlink.com 1.10,2015-09-01 17:40:00,
2015-09-01 10:55:00,61.2,58.0,29.80,SSE,148,1.0,7.0,89,0.00,,,0.05,141,weatherlink.com 1.10,2015-09-01 17:55:00,
2015-09-01 11:10:00,60.4,58.0,29.80,SSE,167,5.0,8.0,90,0.00,,,0.05,104,weatherlink.com 1.10,2015-09-01 18:10:00,
2015-09-01 11:25:00,59.8,57.0,29.80,East,88,2.0,6.0,90,0.00,,,0.05,125,weatherlink.com 1.10,2015-09-01 18:25:00,
2015-09-01 11:40:00,59.0,56.0,29.80,ENE,67,3.0,8.0,91,0.01,,,0.06,67,weatherlink.com 1.10,2015-09-01 18:40:00,
2015-09-01 11:55:00,58.5,57.0,29.79,NE,51,0.0,5.0,93,0.01,,,0.06,53,weatherlink.com 1.10,2015-09-01 18:55:00,
2015-09-01 12:10:00,58.4,57.0,29.79,NE,53,3.0,3.0,94,0.01,,,0.06,69,weatherlink.com 1.10,2015-09-01 19:10:00,
2015-09-01 12:25:00,58.5,57.0,29.79,NE,54,1.0,3.0,95,0.02,,,0.07,84,weatherlink.com 1.10,2015-09-01 19:25:00,
2015-09-01 12:40:00,58.6,57.0,29.79,North,355,1.0,4.0,95,0.03,,,0.09,47,weatherlink.com 1.10,2015-09-01 19:40:00,
2015-09-01 12:55:00,58.5,57.0,29.80,NW,323,3.0,6.0,95,0.05,,,0.11,70,weatherlink.com 1.10,2015-09-01 19:55:00,
2015-09-01 13:10:00,58.2,57.0,29.80,NNW,339,0.0,6.0,95,0.07,,,0.13,158,weatherlink.com 1.10,2015-09-01 20:10:00,
2015-09-01 13:25:00,59.5,59.0,29.79,ENE,62,1.0,4.0,97,0.06,,,0.13,383,weatherlink.com 1.10,2015-09-01 20:25:00,
2015-09-01 13:40:00,59.9,59.0,29.79,NW,323,6.0,8.0,96,0.04,,,0.13,132,weatherlink.com 1.10,2015-09-01 20:40:00,
2015-09-01 13:55:00,58.9,58.0,29.79,NNW,344,1.0,7.0,96,0.01,,,0.13,141,weatherlink.com 1.10,2015-09-01 20:55:00,
2015-09-01 14:10:00,59.1,58.0,29.79,NE,44,0.0,4.0,96,0.00,,,0.13,190,weatherlink.com 1.10,2015-09-01 21:10:00,
2015-09-01 14:25:00,59.8,59.0,29.78,NE,49,2.0,4.0,96,0.00,,,0.13,279,weatherlink.com 1.10,2015-09-01 21:25:00,
2015-09-01 14:40:00,60.7,60.0,29.78,NE,51,0.0,2.0,97,0.00,,,0.13,204,weatherlink.com 1.10,2015-09-01 21:40:00,
2015-09-01 14:55:00,60.9,60.0,29.79,NE,51,0.0,1.0,96,0.00,,,0.13,174,weatherlink.com 1.10,2015-09-01 21:55:00,
2015-09-01 15:10:00,60.9,60.0,29.78,East,101,1.0,5.0,95,0.00,,,0.13,192,weatherlink.com 1.10,2015-09-01 22:10:00,
2015-09-01 15:25:00,61.2,60.0,29.78,ESE,102,0.0,3.0,95,0.00,,,0.13,155,weatherlink.com 1.10,2015-09-01 22:25:00,
2015-09-01 15:40:00,61.4,60.0,29.77,ESE,102,0.0,3.0,95,0.00,,,0.13,148,weatherlink.com 1.10,2015-09-01 22:40:00,
2015-09-01 15:55:00,61.5,60.0,29.77,ESE,103,0.0,3.0,94,0.00,,,0.13,69,weatherlink.com 1.10,2015-09-01 22:55:00,
2015-09-01 16:10:00,61.7,60.0,29.75,ESE,102,2.0,3.0,94,0.00,,,0.13,76,weatherlink.com 1.10,2015-09-01 23:10:00,
2015-09-01 16:25:00,61.8,60.0,29.75,ESE,104,0.0,3.0,94,0.00,,,0.13,77,weatherlink.com 1.10,2015-09-01 23:25:00,
2015-09-01 16:40:00,61.8,60.0,29.75,ESE,105,4.0,4.0,94,0.00,,,0.13,69,weatherlink.com 1.10,2015-09-01 23:40:00,
2015-09-01 16:55:00,61.7,60.0,29.74,SSE,150,3.0,5.0,93,0.00,,,0.13,46,weatherlink.com 1.10,2015-09-01 23:55:00,
2015-09-01 17:11:00,61.7,60.0,29.74,SSE,153,2.0,4.0,93,0.00,,,0.13,37,weatherlink.com 1.10,2015-09-02 00:11:00,
2015-09-01 17:26:00,61.4,59.0,29.74,SSE,150,3.0,8.0,93,0.00,,,0.13,25,weatherlink.com 1.10,2015-09-02 00:26:00,
2015-09-01 17:41:00,61.0,59.0,29.73,SE,141,2.0,9.0,93,0.00,,,0.13,39,weatherlink.com 1.10,2015-09-02 00:41:00,
2015-09-01 17:56:00,61.0,59.0,29.73,SSE,156,4.0,7.0,93,0.00,,,0.13,53,weatherlink.com 1.10,2015-09-02 00:56:00,